« Back
NWS Peachtree City, Ga » Text Product » GA Regional Weather Roundup


Printer-friendly Version
Current Version              Previous Versions:   1  2  3  4  5  6  7  8  9  

Regional Weather Roundup

946
ASUS42 KFFC 032203
RWRGA
WEATHER ROUNDUP FOR GEORGIA
NATIONAL WEATHER SERVICE PEACHTREE CITY GA
600 PM EDT THU SEP 03 2015

NOTE: "FAIR" INDICATES FEW OR NO CLOUDS BELOW 12,000 FEET WITH NO
SIGNIFICANT WEATHER AND/OR OBSTRUCTIONS TO VISIBILITY.

* = USE WITH CAUTION. THE STATIONS MARKED WITH AN ASTERISK MAY NOT
REPORT WEATHER SUCH AS PRECIPITATION, FOG, OR THUNDER AND ARE NOT
QUALITY CONTROLLED BY NWS.

THE REMARK "TC" DENOTES TEMPERATURE READING IN DEGREES CELSIUS.

GAZ001>058-032300-
NORTH GEORGIA

CITY           SKY/WX    TMP DP  RH WIND       PRES   REMARKS
ATLANTA        LGT RAIN  75  69  81 N5        29.96F
ATHENS         PTSUNNY   86  73  65 S5        29.93F HX  93
CHAMBLEE       CLOUDY    75  71  87 W5        29.96F
PEACHTREE CITY LGT RAIN  78  68  71 N3        29.97S
ROME           MOSUNNY   84  68  58 SW9       29.95R
WEST ATLANTA   LGT RAIN  72  68  87 NW3       29.96F
GAINESVILLE    PTSUNNY   85  68  56 SW5       29.98F
CARTERSVILLE   PTSUNNY   74  69  85 CALM      29.97F


CITY           SKY/WX    TMP DP  RH WIND       PRES   REMARKS
DALTON*        SUNNY     88  68  51 CALM      29.95R HX  91
LAWRENCEVILLE* SUNNY     81  63  54 NW7       29.97F
MARIETTA       PTSUNNY   73  69  90 SW6       29.97F
KENNESAW*      MOSUNNY   73  66  78 CALM      29.99F
BLAIRSVILLE*     N/A     85  32  15 CALM      30.00S
$$

GAZ059>098-102>109-032300-
CENTRAL GEORGIA

CITY           SKY/WX    TMP DP  RH WIND       PRES   REMARKS
AUGUSTA-BUSH   PTSUNNY   89  72  56 W3        29.89F HX  96
AUGUSTA-DANIEL PTSUNNY   90  72  55 N3        29.91F HX  97
COLUMBUS       PTSUNNY   89  68  49 NE7       29.91F HX  93
MACON          PTSUNNY   90  71  53 NW5       29.92F HX  96
ROBINS AFB     PTSUNNY   89  73  58 N7        29.91F HX  96


CITY           SKY/WX    TMP DP  RH WIND       PRES   REMARKS
LAGRANGE*      MOSUNNY   89  78  68 CALM      29.95F HX 102
MILLEDGEVILLE* PTSUNNY   86  73  66 CALM      29.91F HX  93
$$

GAZ099>101-110>166-032300-
SOUTH GEORGIA

CITY           SKY/WX    TMP DP  RH WIND       PRES   REMARKS
SAVANNAH       PTSUNNY   88  75  65 VRB3      29.89F HX  97
VALDOSTA       LGT RAIN  80  77  90 VRB5      29.93R
ALMA           CLOUDY    86  75  69 W3        29.91F HX  95
ST SIMONS      CLOUDY    84  76  76 NE6       29.89F HX  93
FT STEWART     PTSUNNY   87  75  67 CALM      29.88S HX  96
ALBANY         PTSUNNY   90  72  55 SW5       29.93F HX  97
HUNTER AFB     PTSUNNY   85  81  87 S2        29.87F HX  99
MOODY AFB      LGT RAIN  86  74  66 NW2       29.92S HX  94
BRUNSWICK      CLOUDY    86  77  74 CALM      29.90F HX  97


CITY           SKY/WX    TMP DP  RH WIND       PRES   REMARKS
BAINBRIDGE*    CLOUDY    91  77  62 SW12      29.93S HX 105
MOULTRIE*      PTSUNNY   86  73  66 CALM      29.94S HX  93
VIDALIA*       PTSUNNY   84  73  70 W3        29.92S HX  91
WAYCROSS*      CLOUDY    88  79  75 W3        29.91S HX 103
DOUGLAS*       CLOUDY    88  72  58 CALM      29.93S HX  94
$$



USA.gov is the U.S. government's official web portal to all federal, state and local government web resources and services.